Time,TemperatureF,DewpointF,PressureIn,WindDirection,WindDirectionDegrees,WindSpeedMPH,WindSpeedGustMPH,Humidity,HourlyPrecipIn,Conditions,Clouds,dailyrainin,SoftwareType,DateUTC
2013-08-22 00:01:00,77.2,65.4,29.96,SSE,166,2.0,7.0,67,0.00,,---,0.00,VWS V14.01,2013-08-22 05:01:00,
2013-08-22 00:06:00,77.1,65.7,29.96,SW,232,3.0,7.0,68,0.00,,---,0.00,VWS V14.01,2013-08-22 05:06:00,
2013-08-22 00:11:00,76.9,65.5,29.96,SW,236,5.0,7.0,68,0.00,,---,0.00,VWS V14.01,2013-08-22 05:11:00,
2013-08-22 00:16:00,76.8,65.4,29.96,SW,229,3.0,4.0,68,0.00,,---,0.00,VWS V14.01,2013-08-22 05:16:00,
2013-08-22 00:21:00,76.6,65.3,29.97,SE,133,3.0,6.0,68,0.00,,---,0.00,VWS V14.01,2013-08-22 05:21:00,
2013-08-22 00:26:00,76.4,65.5,29.97,SSE,153,4.0,6.0,69,0.00,,---,0.00,VWS V14.01,2013-08-22 05:26:00,
2013-08-22 00:31:00,76.3,65.4,29.97,SSE,161,5.0,5.0,69,0.00,,---,0.00,VWS V14.01,2013-08-22 05:31:00,
2013-08-22 00:36:00,76.2,65.3,29.97,SSE,162,2.0,6.0,69,0.00,,---,0.00,VWS V14.01,2013-08-22 05:36:00,
2013-08-22 00:41:00,76.0,65.5,29.98,ESE,108,6.0,6.0,70,0.00,,---,0.00,VWS V14.01,2013-08-22 05:41:00,
2013-08-22 00:46:00,76.0,65.5,29.98,SSE,167,2.0,3.0,70,0.00,,---,0.00,VWS V14.01,2013-08-22 05:46:00,
2013-08-22 00:51:00,75.9,65.4,29.98,SSE,159,2.0,7.0,70,0.00,,---,0.00,VWS V14.01,2013-08-22 05:51:00,
2013-08-22 00:56:00,75.9,65.4,29.99,SW,236,5.0,10.0,70,0.00,,---,0.00,VWS V14.01,2013-08-22 05:56:00,
2013-08-22 01:01:00,75.9,65.4,29.99,SE,145,5.0,6.0,70,0.00,,---,0.00,VWS V14.01,2013-08-22 06:01:00,
2013-08-22 01:06:00,76.0,65.5,29.99,SW,221,0.0,6.0,70,0.00,,---,0.00,VWS V14.01,2013-08-22 06:06:00,
2013-08-22 01:11:00,76.0,65.5,29.99,SW,229,1.0,8.0,70,0.00,,---,0.00,VWS V14.01,2013-08-22 06:11:00,
2013-08-22 01:15:00,76.0,65.5,29.99,SE,135,3.0,3.0,70,0.00,,---,0.00,VWS V14.01,2013-08-22 06:15:00,
2013-08-22 01:20:00,76.1,65.6,29.99,SE,141,5.0,10.0,70,0.00,,---,0.00,VWS V14.01,2013-08-22 06:20:00,
2013-08-22 01:25:00,76.2,65.7,29.99,SW,218,3.0,10.0,70,0.00,,---,0.00,VWS V14.01,2013-08-22 06:25:00,
2013-08-22 01:30:00,76.2,65.7,29.99,SSW,210,4.0,4.0,70,0.00,,---,0.00,VWS V14.01,2013-08-22 06:30:00,
2013-08-22 01:35:00,76.2,65.7,29.99,SW,215,6.0,8.0,70,0.00,,---,0.00,VWS V14.01,2013-08-22 06:35:00,
2013-08-22 01:40:00,76.2,65.7,29.99,SSE,165,4.0,8.0,70,0.00,,---,0.00,VWS V14.01,2013-08-22 06:40:00,
2013-08-22 01:45:00,76.2,65.7,29.99,SSW,203,2.0,4.0,70,0.00,,---,0.00,VWS V14.01,2013-08-22 06:45:00,
2013-08-22 01:50:00,76.3,65.8,29.99,SE,132,3.0,11.0,70,0.00,,---,0.00,VWS V14.01,2013-08-22 06:50:00,
2013-08-22 01:55:00,76.2,65.7,29.98,East,84,7.0,11.0,70,0.00,,---,0.00,VWS V14.01,2013-08-22 06:55:00,
2013-08-22 02:00:00,76.1,65.6,29.98,SE,143,1.0,11.0,70,0.00,,---,0.00,VWS V14.01,2013-08-22 07:00:00,
2013-08-22 02:05:00,75.9,65.8,29.97,SSE,167,1.0,8.0,71,0.00,,---,0.00,VWS V14.01,2013-08-22 07:05:00,
2013-08-22 02:10:00,75.7,65.6,29.97,WSW,248,4.0,8.0,71,0.00,,---,0.00,VWS V14.01,2013-08-22 07:10:00,
2013-08-22 02:15:00,75.6,65.9,29.97,SE,142,5.0,8.0,72,0.00,,---,0.00,VWS V14.01,2013-08-22 07:15:00,
2013-08-22 02:20:00,75.7,66.0,29.97,SSW,193,3.0,7.0,72,0.00,,---,0.00,VWS V14.01,2013-08-22 07:20:00,
2013-08-22 02:25:00,75.7,66.0,29.96,SSE,166,4.0,10.0,72,0.00,,---,0.00,VWS V14.01,2013-08-22 07:25:00,
2013-08-22 02:30:00,75.8,66.1,29.96,SSE,152,2.0,10.0,72,0.00,,---,0.00,VWS V14.01,2013-08-22 07:30:00,
2013-08-22 02:35:00,75.8,66.1,29.96,SSE,156,5.0,11.0,72,0.00,,---,0.00,VWS V14.01,2013-08-22 07:35:00,
2013-08-22 02:40:00,75.8,66.1,29.96,SSW,210,3.0,11.0,72,0.00,,---,0.00,VWS V14.01,2013-08-22 07:40:00,
2013-08-22 02:45:00,75.7,66.0,29.96,SSE,155,1.0,11.0,72,0.00,,---,0.00,VWS V14.01,2013-08-22 07:45:00,
2013-08-22 02:50:00,75.6,65.9,29.96,ESE,120,2.0,6.0,72,0.00,,---,0.00,VWS V14.01,2013-08-22 07:50:00,
2013-08-22 02:55:00,75.5,65.8,29.96,SSE,163,2.0,8.0,72,0.00,,---,0.00,VWS V14.01,2013-08-22 07:55:00,
2013-08-22 03:00:00,75.6,65.9,29.96,South,170,1.0,8.0,72,0.00,,---,0.00,VWS V14.01,2013-08-22 08:00:00,
2013-08-22 03:05:00,75.6,65.9,29.96,SSW,205,5.0,8.0,72,0.00,,---,0.00,VWS V14.01,2013-08-22 08:05:00,
2013-08-22 03:10:00,75.7,66.0,29.96,SSW,193,6.0,8.0,72,0.00,,---,0.00,VWS V14.01,2013-08-22 08:10:00,
2013-08-22 03:15:00,75.7,65.6,29.96,SSW,212,0.0,10.0,71,0.00,,---,0.00,VWS V14.01,2013-08-22 08:15:00,
2013-08-22 03:20:00,75.8,65.7,29.96,SW,229,4.0,7.0,71,0.00,,---,0.00,VWS V14.01,2013-08-22 08:20:00,
2013-08-22 03:25:00,75.9,65.8,29.96,SW,235,4.0,7.0,71,0.00,,---,0.00,VWS V14.01,2013-08-22 08:25:00,
2013-08-22 03:30:00,75.9,65.4,29.97,SSW,208,3.0,7.0,70,0.00,,---,0.00,VWS V14.01,2013-08-22 08:30:00,
2013-08-22 03:35:00,75.9,65.4,29.97,SSE,153,4.0,7.0,70,0.00,,---,0.00,VWS V14.01,2013-08-22 08:35:00,
2013-08-22 03:40:00,76.0,65.5,29.97,SW,229,1.0,7.0,70,0.00,,---,0.00,VWS V14.01,2013-08-22 08:40:00,
2013-08-22 03:45:00,76.1,65.2,29.97,SW,218,5.0,9.0,69,0.00,,---,0.00,VWS V14.01,2013-08-22 08:45:00,
2013-08-22 03:50:00,76.3,65.4,29.98,SW,221,5.0,9.0,69,0.00,,---,0.00,VWS V14.01,2013-08-22 08:50:00,
2013-08-22 03:55:00,76.4,65.5,29.98,South,183,3.0,10.0,69,0.00,,---,0.00,VWS V14.01,2013-08-22 08:55:00,
2013-08-22 04:00:00,76.3,65.4,29.98,SE,146,5.0,10.0,69,0.00,,---,0.00,VWS V14.01,2013-08-22 09:00:00,
2013-08-22 04:05:00,76.3,65.4,29.98,SW,222,2.0,10.0,69,0.00,,---,0.00,VWS V14.01,2013-08-22 09:05:00,
2013-08-22 04:10:00,76.2,65.3,29.98,SSW,197,2.0,10.0,69,0.00,,---,0.00,VWS V14.01,2013-08-22 09:10:00,
2013-08-22 04:15:00,76.1,65.2,29.98,SSW,209,1.0,10.0,69,0.00,,---,0.00,VWS V14.01,2013-08-22 09:15:00,
2013-08-22 04:20:00,75.9,65.4,29.99,SSW,198,0.0,4.0,70,0.00,,---,0.00,VWS V14.01,2013-08-22 09:20:00,
2013-08-22 04:25:00,75.6,65.1,29.99,SW,221,0.0,4.0,70,0.00,,---,0.00,VWS V14.01,2013-08-22 09:25:00,
2013-08-22 04:30:00,75.4,65.3,29.98,SSW,212,2.0,4.0,71,0.00,,---,0.00,VWS V14.01,2013-08-22 09:30:00,
2013-08-22 04:35:00,75.2,65.2,29.98,SSW,210,0.0,2.0,71,0.00,,---,0.00,VWS V14.01,2013-08-22 09:35:00,
2013-08-22 04:40:00,75.0,65.0,29.98,SSE,158,0.0,2.0,71,0.00,,---,0.00,VWS V14.01,2013-08-22 09:40:00,
2013-08-22 04:45:00,74.9,65.3,29.98,SSW,203,0.0,3.0,72,0.00,,---,0.00,VWS V14.01,2013-08-22 09:45:00,
2013-08-22 04:50:00,74.9,65.3,29.98,South,184,2.0,7.0,72,0.00,,---,0.00,VWS V14.01,2013-08-22 09:50:00,
2013-08-22 04:55:00,74.8,65.2,29.99,SE,145,5.0,8.0,72,0.00,,---,0.00,VWS V14.01,2013-08-22 09:55:00,
2013-08-22 05:00:00,74.8,65.2,29.98,South,176,5.0,9.0,72,0.00,,---,0.00,VWS V14.01,2013-08-22 10:00:00,
2013-08-22 05:05:00,74.7,65.1,29.99,South,172,4.0,7.0,72,0.00,,---,0.00,VWS V14.01,2013-08-22 10:05:00,
2013-08-22 05:10:00,74.7,65.1,29.99,SSW,208,3.0,8.0,72,0.00,,---,0.00,VWS V14.01,2013-08-22 10:10:00,
2013-08-22 05:15:00,74.6,65.0,29.99,South,191,1.0,9.0,72,0.00,,---,0.00,VWS V14.01,2013-08-22 10:15:00,
2013-08-22 05:20:00,74.5,65.3,29.99,SSW,210,3.0,10.0,73,0.00,,---,0.00,VWS V14.01,2013-08-22 10:20:00,
2013-08-22 05:25:00,74.5,65.3,29.99,SW,229,5.0,10.0,73,0.00,,---,0.00,VWS V14.01,2013-08-22 10:25:00,
2013-08-22 05:30:00,74.4,65.2,29.99,SW,236,2.0,10.0,73,0.00,,---,0.00,VWS V14.01,2013-08-22 10:30:00,
2013-08-22 05:35:00,74.2,65.4,29.99,SSW,204,4.0,7.0,74,0.00,,---,0.00,VWS V14.01,2013-08-22 10:35:00,
2013-08-22 05:40:00,74.1,65.3,29.99,South,183,3.0,7.0,74,0.00,,---,0.00,VWS V14.01,2013-08-22 10:40:00,
2013-08-22 05:45:00,73.2,64.4,29.99,SW,224,2.0,7.0,74,0.00,,---,0.00,VWS V14.01,2013-08-22 10:45:00,
2013-08-22 07:27:00,73.3,64.5,30.05,SSW,205,1.0,1.0,74,0.00,,---,0.00,VWS V14.01,2013-08-22 12:27:00,
2013-08-22 07:32:00,73.3,64.5,30.05,SSW,205,1.0,1.0,74,0.00,,---,0.00,VWS V14.01,2013-08-22 12:32:00,
2013-08-22 07:37:00,71.8,65.3,30.06,NE,52,3.0,3.0,80,0.00,,---,0.00,VWS V14.01,2013-08-22 12:37:00,
2013-08-22 07:42:00,71.8,65.7,30.06,NE,46,3.0,4.0,81,0.00,,---,0.00,VWS V14.01,2013-08-22 12:42:00,
2013-08-22 07:47:00,71.7,65.6,30.06,East,89,1.0,5.0,81,0.00,,---,0.00,VWS V14.01,2013-08-22 12:47:00,
2013-08-22 07:52:00,71.8,65.7,30.05,SE,142,0.0,5.0,81,0.00,,---,0.00,VWS V14.01,2013-08-22 12:52:00,
2013-08-22 07:57:00,72.0,65.9,30.05,East,97,0.0,5.0,81,0.00,,---,0.00,VWS V14.01,2013-08-22 12:57:00,
2013-08-22 08:00:00,72.0,65.5,30.05,ENE,68,2.0,5.0,80,0.00,,---,0.00,VWS V14.01,2013-08-22 13:00:00,
2013-08-22 08:05:00,72.1,65.6,30.06,East,79,1.0,4.0,80,0.00,,---,0.00,VWS V14.01,2013-08-22 13:05:00,
2013-08-22 08:10:00,72.2,66.1,30.05,ESE,115,0.0,4.0,81,0.00,,---,0.00,VWS V14.01,2013-08-22 13:10:00,
2013-08-22 08:15:00,72.3,65.8,30.05,SE,134,0.0,4.0,80,0.00,,---,0.00,VWS V14.01,2013-08-22 13:15:00,
2013-08-22 08:20:00,72.5,66.0,30.05,SE,129,2.0,4.0,80,0.00,,---,0.00,VWS V14.01,2013-08-22 13:20:00,
2013-08-22 08:25:00,72.7,66.2,30.05,ESE,104,1.0,4.0,80,0.00,,---,0.00,VWS V14.01,2013-08-22 13:25:00,
2013-08-22 08:30:00,72.9,66.0,30.05,ESE,119,1.0,4.0,79,0.00,,---,0.00,VWS V14.01,2013-08-22 13:30:00,
2013-08-22 08:35:00,73.1,66.2,30.05,ESE,105,0.0,3.0,79,0.00,,---,0.00,VWS V14.01,2013-08-22 13:35:00,
2013-08-22 08:40:00,73.3,66.4,30.04,East,91,0.0,3.0,79,0.00,,---,0.00,VWS V14.01,2013-08-22 13:40:00,
2013-08-22 08:45:00,73.7,66.8,30.05,NE,50,1.0,3.0,79,0.00,,---,0.00,VWS V14.01,2013-08-22 13:45:00,
2013-08-22 08:50:00,73.9,67.0,30.04,SE,142,3.0,3.0,79,0.00,,---,0.00,VWS V14.01,2013-08-22 13:50:00,
2013-08-22 08:55:00,74.1,66.8,30.04,ESE,108,2.0,5.0,78,0.00,,---,0.00,VWS V14.01,2013-08-22 13:55:00,
2013-08-22 09:00:00,74.3,67.0,30.03,SSE,161,0.0,5.0,78,0.00,,---,0.00,VWS V14.01,2013-08-22 14:00:00,
2013-08-22 09:05:00,74.6,67.3,30.04,SSE,150,0.0,3.0,78,0.00,,---,0.00,VWS V14.01,2013-08-22 14:05:00,
2013-08-22 09:10:00,74.8,67.5,30.04,SSE,163,1.0,7.0,78,0.00,,---,0.00,VWS V14.01,2013-08-22 14:10:00,
2013-08-22 09:15:00,75.0,67.3,30.04,SSE,150,3.0,9.0,77,0.00,,---,0.00,VWS V14.01,2013-08-22 14:15:00,
2013-08-22 09:20:00,75.1,67.4,30.03,SSW,207,1.0,7.0,77,0.00,,---,0.00,VWS V14.01,2013-08-22 14:20:00,
2013-08-22 09:25:00,75.3,67.2,30.03,SE,128,0.0,7.0,76,0.00,,---,0.00,VWS V14.01,2013-08-22 14:25:00,
2013-08-22 09:30:00,75.5,67.4,30.03,East,79,2.0,7.0,76,0.00,,---,0.00,VWS V14.01,2013-08-22 14:30:00,
2013-08-22 09:35:00,75.8,67.7,30.03,ESE,102,1.0,3.0,76,0.00,,---,0.00,VWS V14.01,2013-08-22 14:35:00,
2013-08-22 09:40:00,75.7,67.6,30.03,SSW,204,4.0,6.0,76,0.00,,---,0.00,VWS V14.01,2013-08-22 14:40:00,
2013-08-22 09:45:00,75.7,67.6,30.02,ESE,123,2.0,6.0,76,0.00,,---,0.00,VWS V14.01,2013-08-22 14:45:00,
2013-08-22 09:50:00,76.0,67.9,30.02,West,271,0.0,5.0,76,0.00,,---,0.00,VWS V14.01,2013-08-22 14:50:00,
2013-08-22 09:55:00,76.3,67.8,30.02,SE,145,1.0,5.0,75,0.00,,---,0.00,VWS V14.01,2013-08-22 14:55:00,
2013-08-22 10:00:00,76.6,67.7,30.02,SW,215,0.0,5.0,74,0.00,,---,0.00,VWS V14.01,2013-08-22 15:00:00,
2013-08-22 10:05:00,77.0,68.1,30.02,SSE,149,3.0,5.0,74,0.00,,---,0.00,VWS V14.01,2013-08-22 15:05:00,
2013-08-22 10:10:00,77.1,67.8,30.02,SSE,165,1.0,7.0,73,0.00,,---,0.00,VWS V14.01,2013-08-22 15:10:00,
2013-08-22 10:15:00,77.2,67.9,30.02,SSE,151,5.0,7.0,73,0.00,,---,0.00,VWS V14.01,2013-08-22 15:15:00,
2013-08-22 10:20:00,77.2,67.9,30.02,SSW,201,4.0,8.0,73,0.00,,---,0.00,VWS V14.01,2013-08-22 15:20:00,
2013-08-22 10:25:00,77.7,68.4,30.02,SE,131,0.0,8.0,73,0.00,,---,0.00,VWS V14.01,2013-08-22 15:25:00,
2013-08-22 10:30:00,78.2,68.8,30.02,South,177,3.0,8.0,73,0.00,,---,0.00,VWS V14.01,2013-08-22 15:30:00,
2013-08-22 10:35:00,78.9,69.1,30.02,SE,136,1.0,5.0,72,0.00,,---,0.00,VWS V14.01,2013-08-22 15:35:00,
2013-08-22 10:40:00,79.6,69.0,30.02,SE,131,5.0,6.0,70,0.00,,---,0.00,VWS V14.01,2013-08-22 15:40:00,
2013-08-22 10:45:00,79.8,68.7,30.01,SE,140,3.0,6.0,69,0.00,,---,0.00,VWS V14.01,2013-08-22 15:45:00,
2013-08-22 10:50:00,80.3,68.8,30.02,SSE,153,6.0,8.0,68,0.00,,---,0.00,VWS V14.01,2013-08-22 15:50:00,
2013-08-22 10:55:00,80.9,68.9,30.02,SW,219,2.0,8.0,67,0.00,,---,0.00,VWS V14.01,2013-08-22 15:55:00,
2013-08-22 11:00:00,81.9,69.4,30.02,WSW,243,2.0,8.0,66,0.00,,---,0.00,VWS V14.01,2013-08-22 16:00:00,
2013-08-22 11:05:00,82.0,69.1,30.02,SSW,194,4.0,6.0,65,0.00,,---,0.00,VWS V14.01,2013-08-22 16:05:00,
2013-08-22 11:10:00,82.1,68.3,30.02,South,184,1.0,6.0,63,0.00,,---,0.00,VWS V14.01,2013-08-22 16:10:00,
2013-08-22 11:15:00,82.0,68.2,30.02,SE,143,4.0,7.0,63,0.00,,---,0.00,VWS V14.01,2013-08-22 16:15:00,
2013-08-22 11:20:00,82.0,68.6,30.02,SSW,203,1.0,6.0,64,0.00,,---,0.00,VWS V14.01,2013-08-22 16:20:00,
2013-08-22 11:25:00,82.5,68.6,30.02,SSW,197,2.0,6.0,63,0.00,,---,0.00,VWS V14.01,2013-08-22 16:25:00,
2013-08-22 11:30:00,83.0,69.1,30.02,SW,235,0.0,6.0,63,0.00,,---,0.00,VWS V14.01,2013-08-22 16:30:00,
2013-08-22 11:35:00,83.3,68.9,30.02,SSE,166,3.0,5.0,62,0.00,,---,0.00,VWS V14.01,2013-08-22 16:35:00,
2013-08-22 11:40:00,83.5,68.7,30.02,South,169,1.0,6.0,61,0.00,,---,0.00,VWS V14.01,2013-08-22 16:40:00,
2013-08-22 11:45:00,83.4,68.1,30.02,SW,229,3.0,9.0,60,0.00,,---,0.00,VWS V14.01,2013-08-22 16:45:00,
2013-08-22 11:50:00,83.9,68.5,30.01,South,179,3.0,8.0,60,0.00,,---,0.00,VWS V14.01,2013-08-22 16:50:00,
2013-08-22 11:55:00,84.3,68.9,30.01,SSW,207,2.0,8.0,60,0.00,,---,0.00,VWS V14.01,2013-08-22 16:55:00,
2013-08-22 12:00:00,84.5,68.6,30.01,South,186,3.0,8.0,59,0.00,,---,0.00,VWS V14.01,2013-08-22 17:00:00,
2013-08-22 12:05:00,84.5,68.6,30.01,SE,145,4.0,7.0,59,0.00,,---,0.00,VWS V14.01,2013-08-22 17:05:00,
2013-08-22 12:10:00,84.4,69.0,30.01,ESE,105,2.0,8.0,60,0.00,,---,0.00,VWS V14.01,2013-08-22 17:10:00,
2013-08-22 12:15:00,84.6,68.7,30.01,SSE,153,4.0,8.0,59,0.00,,---,0.00,VWS V14.01,2013-08-22 17:15:00,
2013-08-22 12:20:00,84.7,69.3,30.00,SW,235,4.0,8.0,60,0.00,,---,0.00,VWS V14.01,2013-08-22 17:20:00,
2013-08-22 12:24:00,85.1,69.2,30.00,SSE,150,3.0,8.0,59,0.00,,---,0.00,VWS V14.01,2013-08-22 17:24:00,
2013-08-22 12:29:00,85.7,69.7,30.00,SSE,153,3.0,8.0,59,0.00,,---,0.00,VWS V14.01,2013-08-22 17:29:00,
2013-08-22 12:34:00,86.1,69.1,30.00,ESE,102,10.0,10.0,57,0.00,,---,0.00,VWS V14.01,2013-08-22 17:34:00,
2013-08-22 12:39:00,86.0,69.5,29.99,SSW,211,5.0,10.0,58,0.00,,---,0.00,VWS V14.01,2013-08-22 17:39:00,
2013-08-22 12:44:00,86.6,69.6,29.99,SSW,204,3.0,10.0,57,0.00,,---,0.00,VWS V14.01,2013-08-22 17:44:00,
2013-08-22 12:49:00,87.0,68.9,29.99,SSW,194,2.0,10.0,55,0.00,,---,0.00,VWS V14.01,2013-08-22 17:49:00,
2013-08-22 12:54:00,87.7,69.5,30.00,South,191,3.0,10.0,55,0.00,,---,0.00,VWS V14.01,2013-08-22 17:54:00,
2013-08-22 12:59:00,88.3,69.6,29.99,South,180,4.0,10.0,54,0.00,,---,0.00,VWS V14.01,2013-08-22 17:59:00,
2013-08-22 13:04:00,88.5,69.2,30.00,South,173,3.0,9.0,53,0.00,,---,0.00,VWS V14.01,2013-08-22 18:04:00,
2013-08-22 13:09:00,88.9,69.6,30.00,SW,236,2.0,9.0,53,0.00,,---,0.00,VWS V14.01,2013-08-22 18:09:00,
2013-08-22 13:14:00,89.4,68.9,29.99,SSW,212,4.0,9.0,51,0.00,,---,0.00,VWS V14.01,2013-08-22 18:14:00,
2013-08-22 13:19:00,89.6,69.7,29.99,SSW,200,5.0,7.0,52,0.00,,---,0.00,VWS V14.01,2013-08-22 18:19:00,
2013-08-22 13:24:00,90.0,69.5,29.99,SSE,155,6.0,7.0,51,0.00,,---,0.00,VWS V14.01,2013-08-22 18:24:00,
2013-08-22 13:29:00,90.0,68.9,29.99,SSE,155,5.0,9.0,50,0.00,,---,0.00,VWS V14.01,2013-08-22 18:29:00,
2013-08-22 13:34:00,90.1,69.0,29.99,SE,146,2.0,9.0,50,0.00,,---,0.00,VWS V14.01,2013-08-22 18:34:00,
2013-08-22 13:39:00,90.2,69.1,29.99,SW,215,11.0,11.0,50,0.00,,---,0.00,VWS V14.01,2013-08-22 18:39:00,
2013-08-22 13:44:00,90.3,68.6,29.99,SSE,152,3.0,12.0,49,0.00,,---,0.00,VWS V14.01,2013-08-22 18:44:00,
2013-08-22 13:49:00,90.3,68.6,29.99,SSE,147,5.0,9.0,49,0.00,,---,0.00,VWS V14.01,2013-08-22 18:49:00,
2013-08-22 13:54:00,90.4,69.2,29.98,SSE,152,3.0,9.0,50,0.00,,---,0.00,VWS V14.01,2013-08-22 18:54:00,
2013-08-22 13:59:00,90.5,68.8,29.99,SSE,148,5.0,9.0,49,0.00,,---,0.00,VWS V14.01,2013-08-22 18:59:00,
2013-08-22 14:04:00,90.5,69.3,29.99,SSW,212,5.0,8.0,50,0.00,,---,0.00,VWS V14.01,2013-08-22 19:04:00,
2013-08-22 14:09:00,90.8,69.0,29.98,SSE,157,5.0,8.0,49,0.00,,---,0.00,VWS V14.01,2013-08-22 19:09:00,
2013-08-22 14:14:00,91.1,68.7,29.98,South,169,5.0,9.0,48,0.00,,---,0.00,VWS V14.01,2013-08-22 19:14:00,
2013-08-22 14:19:00,91.6,69.2,29.98,SSW,200,6.0,10.0,48,0.00,,---,0.00,VWS V14.01,2013-08-22 19:19:00,
2013-08-22 14:24:00,92.1,68.4,29.99,South,181,3.0,11.0,46,0.00,,---,0.00,VWS V14.01,2013-08-22 19:24:00,
2013-08-22 14:29:00,91.9,68.8,29.98,SW,215,0.0,11.0,47,0.00,,---,0.00,VWS V14.01,2013-08-22 19:29:00,
2013-08-22 14:34:00,92.5,68.7,29.98,SSW,207,6.0,9.0,46,0.00,,---,0.00,VWS V14.01,2013-08-22 19:34:00,
2013-08-22 14:39:00,92.6,68.8,29.99,SSE,150,6.0,9.0,46,0.00,,---,0.00,VWS V14.01,2013-08-22 19:39:00,
2013-08-22 14:44:00,92.5,68.1,29.99,SSW,201,1.0,9.0,45,0.00,,---,0.00,VWS V14.01,2013-08-22 19:44:00,
2013-08-22 14:49:00,92.8,68.4,29.99,SE,128,1.0,9.0,45,0.00,,---,0.00,VWS V14.01,2013-08-22 19:49:00,
2013-08-22 14:54:00,92.9,67.1,29.98,SW,222,3.0,11.0,43,0.00,,---,0.00,VWS V14.01,2013-08-22 19:54:00,
2013-08-22 14:59:00,92.9,67.1,29.99,SE,142,5.0,11.0,43,0.00,,---,0.00,VWS V14.01,2013-08-22 19:59:00,
2013-08-22 15:04:00,93.1,67.3,29.98,SSW,198,7.0,10.0,43,0.00,,---,0.00,VWS V14.01,2013-08-22 20:04:00,
2013-08-22 15:09:00,93.6,67.1,29.98,South,188,4.0,10.0,42,0.00,,---,0.00,VWS V14.01,2013-08-22 20:09:00,
2013-08-22 15:14:00,93.7,67.2,29.98,SE,135,2.0,10.0,42,0.00,,---,0.00,VWS V14.01,2013-08-22 20:14:00,
2013-08-22 15:19:00,93.3,66.1,29.98,ESE,117,6.0,12.0,41,0.00,,---,0.00,VWS V14.01,2013-08-22 20:19:00,
2013-08-22 15:24:00,93.4,66.9,29.98,SW,222,3.0,12.0,42,0.00,,---,0.00,VWS V14.01,2013-08-22 20:24:00,
2013-08-22 15:29:00,93.6,66.4,29.99,SSE,159,4.0,12.0,41,0.00,,---,0.00,VWS V14.01,2013-08-22 20:29:00,
2013-08-22 15:34:00,93.7,66.5,29.98,ESE,115,6.0,9.0,41,0.00,,---,0.00,VWS V14.01,2013-08-22 20:34:00,
2013-08-22 15:39:00,93.9,65.9,29.98,SE,141,8.0,9.0,40,0.00,,---,0.00,VWS V14.01,2013-08-22 20:39:00,
2013-08-22 15:44:00,93.6,64.9,29.98,SE,139,4.0,9.0,39,0.00,,---,0.00,VWS V14.01,2013-08-22 20:44:00,
2013-08-22 15:49:00,93.5,64.1,29.98,South,191,5.0,12.0,38,0.00,,---,0.00,VWS V14.01,2013-08-22 20:49:00,
2013-08-22 15:54:00,94.3,65.6,29.98,SSE,149,4.0,12.0,39,0.00,,---,0.00,VWS V14.01,2013-08-22 20:54:00,
2013-08-22 15:59:00,94.5,65.0,29.98,SE,138,2.0,12.0,38,0.00,,---,0.00,VWS V14.01,2013-08-22 20:59:00,
2013-08-22 16:04:00,94.6,65.1,29.98,SW,226,3.0,5.0,38,0.00,,---,0.00,VWS V14.01,2013-08-22 21:04:00,
2013-08-22 16:09:00,94.5,65.0,29.97,SE,128,3.0,9.0,38,0.00,,---,0.00,VWS V14.01,2013-08-22 21:09:00,
2013-08-22 16:14:00,94.5,65.0,29.97,SW,224,4.0,9.0,38,0.00,,---,0.00,VWS V14.01,2013-08-22 21:14:00,
2013-08-22 16:19:00,94.5,65.0,29.97,SSW,212,9.0,11.0,38,0.00,,---,0.00,VWS V14.01,2013-08-22 21:19:00,
2013-08-22 16:24:00,94.7,65.9,29.97,SSW,210,1.0,11.0,39,0.00,,---,0.00,VWS V14.01,2013-08-22 21:24:00,
2013-08-22 16:29:00,94.8,66.0,29.97,SE,143,8.0,11.0,39,0.00,,---,0.00,VWS V14.01,2013-08-22 21:29:00,
2013-08-22 16:34:00,94.3,66.3,29.97,West,263,5.0,9.0,40,0.00,,---,0.00,VWS V14.01,2013-08-22 21:34:00,
2013-08-22 16:39:00,94.0,66.7,29.97,SSE,151,6.0,9.0,41,0.00,,---,0.00,VWS V14.01,2013-08-22 21:39:00,
2013-08-22 16:44:00,93.8,66.6,29.97,SSE,152,8.0,12.0,41,0.00,,---,0.00,VWS V14.01,2013-08-22 21:44:00,
2013-08-22 16:49:00,93.5,66.3,29.97,SE,129,4.0,9.0,41,0.00,,---,0.00,VWS V14.01,2013-08-22 21:49:00,
2013-08-22 16:54:00,93.7,65.8,29.97,SE,143,3.0,9.0,40,0.00,,---,0.00,VWS V14.01,2013-08-22 21:54:00,
2013-08-22 16:59:00,93.3,66.1,29.97,SE,138,4.0,11.0,41,0.00,,---,0.00,VWS V14.01,2013-08-22 21:59:00,
2013-08-22 17:04:00,93.1,65.9,29.96,SE,134,4.0,9.0,41,0.00,,---,0.00,VWS V14.01,2013-08-22 22:04:00,
2013-08-22 17:09:00,93.1,65.9,29.97,SSE,159,4.0,12.0,41,0.00,,---,0.00,VWS V14.01,2013-08-22 22:09:00,
2013-08-22 17:14:00,92.8,66.4,29.97,SSE,148,3.0,12.0,42,0.00,,---,0.00,VWS V14.01,2013-08-22 22:14:00,
2013-08-22 17:19:00,93.0,65.8,29.97,SE,145,8.0,10.0,41,0.00,,---,0.00,VWS V14.01,2013-08-22 22:19:00,
2013-08-22 17:24:00,92.8,65.7,29.96,SE,129,9.0,11.0,41,0.00,,---,0.00,VWS V14.01,2013-08-22 22:24:00,
2013-08-22 17:29:00,92.5,65.4,29.97,SSE,167,7.0,12.0,41,0.00,,---,0.00,VWS V14.01,2013-08-22 22:29:00,
2013-08-22 17:34:00,92.3,63.0,29.96,ENE,75,6.0,12.0,38,0.00,,---,0.00,VWS V14.01,2013-08-22 22:34:00,
2013-08-22 17:39:00,92.4,63.1,29.96,SE,135,4.0,12.0,38,0.00,,---,0.00,VWS V14.01,2013-08-22 22:39:00,
2013-08-22 17:44:00,92.6,63.3,29.97,SSW,203,7.0,12.0,38,0.00,,---,0.00,VWS V14.01,2013-08-22 22:44:00,
2013-08-22 17:49:00,92.7,64.1,29.96,SE,145,5.0,7.0,39,0.00,,---,0.00,VWS V14.01,2013-08-22 22:49:00,
2013-08-22 17:54:00,92.9,65.0,29.96,South,170,3.0,9.0,40,0.00,,---,0.00,VWS V14.01,2013-08-22 22:54:00,
2013-08-22 17:59:00,93.0,65.1,29.96,SE,143,2.0,10.0,40,0.00,,---,0.00,VWS V14.01,2013-08-22 22:59:00,
2013-08-22 18:04:00,92.7,65.6,29.96,SE,129,4.0,10.0,41,0.00,,---,0.00,VWS V14.01,2013-08-22 23:04:00,
2013-08-22 18:09:00,92.4,66.7,29.96,SSE,158,1.0,10.0,43,0.00,,---,0.00,VWS V14.01,2013-08-22 23:09:00,
2013-08-22 18:14:00,92.4,67.3,29.96,SE,134,7.0,10.0,44,0.00,,---,0.00,VWS V14.01,2013-08-22 23:14:00,
2013-08-22 18:19:00,91.8,67.4,29.96,SE,143,3.0,10.0,45,0.00,,---,0.00,VWS V14.01,2013-08-22 23:19:00,
2013-08-22 18:24:00,91.6,66.6,29.96,ESE,105,4.0,10.0,44,0.00,,---,0.00,VWS V14.01,2013-08-22 23:24:00,
2013-08-22 18:29:00,91.6,67.3,29.96,South,172,2.0,10.0,45,0.00,,---,0.00,VWS V14.01,2013-08-22 23:29:00,
2013-08-22 18:34:00,91.7,67.4,29.96,ESE,113,5.0,9.0,45,0.00,,---,0.00,VWS V14.01,2013-08-22 23:34:00,
2013-08-22 18:39:00,91.2,66.9,29.96,SSE,160,2.0,10.0,45,0.00,,---,0.00,VWS V14.01,2013-08-22 23:39:00,
2013-08-22 18:44:00,91.1,66.8,29.96,SE,143,5.0,11.0,45,0.00,,---,0.00,VWS V14.01,2013-08-22 23:44:00,
2013-08-22 18:49:00,90.8,67.2,29.96,ESE,118,10.0,10.0,46,0.00,,---,0.00,VWS V14.01,2013-08-22 23:49:00,
2013-08-22 18:54:00,90.5,66.9,29.96,South,177,7.0,11.0,46,0.00,,---,0.00,VWS V14.01,2013-08-22 23:54:00,
2013-08-22 18:59:00,90.3,67.3,29.95,SW,227,2.0,11.0,47,0.00,,---,0.00,VWS V14.01,2013-08-22 23:59:00,
2013-08-22 19:04:00,90.3,66.7,29.95,SSE,148,4.0,8.0,46,0.00,,---,0.00,VWS V14.01,2013-08-23 00:04:00,
2013-08-22 19:09:00,90.0,67.1,29.95,SSE,151,7.0,9.0,47,0.00,,---,0.00,VWS V14.01,2013-08-23 00:09:00,
2013-08-22 19:14:00,89.8,67.5,29.95,SE,134,4.0,9.0,48,0.00,,---,0.00,VWS V14.01,2013-08-23 00:14:00,
2013-08-22 19:19:00,89.8,67.5,29.95,SSE,148,3.0,6.0,48,0.00,,---,0.00,VWS V14.01,2013-08-23 00:19:00,
2013-08-22 19:24:00,89.6,67.3,29.95,SSW,195,2.0,6.0,48,0.00,,---,0.00,VWS V14.01,2013-08-23 00:24:00,
2013-08-22 19:29:00,89.6,67.9,29.95,SSW,193,3.0,6.0,49,0.00,,---,0.00,VWS V14.01,2013-08-23 00:29:00,
2013-08-22 19:34:00,89.4,67.7,29.95,SW,215,0.0,4.0,49,0.00,,---,0.00,VWS V14.01,2013-08-23 00:34:00,
2013-08-22 19:39:00,89.2,68.2,29.95,ESE,110,2.0,9.0,50,0.00,,---,0.00,VWS V14.01,2013-08-23 00:39:00,
2013-08-22 19:44:00,88.8,68.4,29.95,SSE,156,1.0,9.0,51,0.00,,---,0.00,VWS V14.01,2013-08-23 00:44:00,
2013-08-22 19:49:00,88.6,68.2,29.95,SSE,148,3.0,7.0,51,0.00,,---,0.00,VWS V14.01,2013-08-23 00:49:00,
2013-08-22 19:54:00,88.2,68.4,29.95,SSE,160,1.0,7.0,52,0.00,,---,0.00,VWS V14.01,2013-08-23 00:54:00,
2013-08-22 19:59:00,87.9,68.1,29.95,SW,215,1.0,7.0,52,0.00,,---,0.00,VWS V14.01,2013-08-23 00:59:00,
2013-08-22 20:04:00,87.4,68.2,29.95,SE,145,2.0,4.0,53,0.00,,---,0.00,VWS V14.01,2013-08-23 01:04:00,
2013-08-22 20:09:00,87.0,68.4,29.95,SSE,163,0.0,4.0,54,0.00,,---,0.00,VWS V14.01,2013-08-23 01:09:00,
2013-08-22 20:14:00,86.5,68.4,29.95,SSE,148,3.0,4.0,55,0.00,,---,0.00,VWS V14.01,2013-08-23 01:14:00,
2013-08-22 20:19:00,86.1,68.1,29.95,WSW,256,3.0,5.0,55,0.00,,---,0.00,VWS V14.01,2013-08-23 01:19:00,
2013-08-22 20:24:00,85.9,68.4,29.95,SSE,168,1.0,7.0,56,0.00,,---,0.00,VWS V14.01,2013-08-23 01:24:00,
2013-08-22 20:29:00,85.5,68.0,29.95,South,179,1.0,7.0,56,0.00,,---,0.00,VWS V14.01,2013-08-23 01:29:00,
2013-08-22 20:34:00,85.3,68.3,29.95,ESE,110,2.0,3.0,57,0.00,,---,0.00,VWS V14.01,2013-08-23 01:34:00,
2013-08-22 20:38:00,85.0,68.6,29.95,SE,146,1.0,6.0,58,0.00,,---,0.00,VWS V14.01,2013-08-23 01:38:00,
2013-08-22 20:43:00,84.7,68.8,29.95,SE,134,0.0,6.0,59,0.00,,---,0.00,VWS V14.01,2013-08-23 01:43:00,
2013-08-22 20:48:00,84.4,69.0,29.95,SE,134,0.0,3.0,60,0.00,,---,0.00,VWS V14.01,2013-08-23 01:48:00,
2013-08-22 20:53:00,84.1,69.2,29.95,SE,125,1.0,4.0,61,0.00,,---,0.00,VWS V14.01,2013-08-23 01:53:00,
2013-08-22 20:58:00,83.7,69.3,29.95,South,177,1.0,5.0,62,0.00,,---,0.00,VWS V14.01,2013-08-23 01:58:00,
2013-08-22 21:03:00,83.4,69.0,29.95,East,93,4.0,5.0,62,0.00,,---,0.00,VWS V14.01,2013-08-23 02:03:00,
2013-08-22 21:08:00,83.2,69.3,29.96,SE,128,0.0,5.0,63,0.00,,---,0.00,VWS V14.01,2013-08-23 02:08:00,
2013-08-22 21:13:00,83.0,69.6,29.96,SE,143,1.0,5.0,64,0.00,,---,0.00,VWS V14.01,2013-08-23 02:13:00,
2013-08-22 21:18:00,82.8,69.4,29.96,SSE,166,2.0,3.0,64,0.00,,---,0.00,VWS V14.01,2013-08-23 02:18:00,
2013-08-22 21:23:00,82.6,69.2,29.97,SE,141,1.0,3.0,64,0.00,,---,0.00,VWS V14.01,2013-08-23 02:23:00,
2013-08-22 21:28:00,82.5,69.6,29.97,South,174,1.0,5.0,65,0.00,,---,0.00,VWS V14.01,2013-08-23 02:28:00,
2013-08-22 21:33:00,82.4,69.5,29.97,SSE,152,2.0,5.0,65,0.00,,---,0.00,VWS V14.01,2013-08-23 02:33:00,
2013-08-22 21:38:00,82.3,69.4,29.97,SSE,165,1.0,5.0,65,0.00,,---,0.00,VWS V14.01,2013-08-23 02:38:00,
2013-08-22 21:43:00,82.2,69.3,29.97,SSE,162,2.0,6.0,65,0.00,,---,0.00,VWS V14.01,2013-08-23 02:43:00,
2013-08-22 21:48:00,82.1,69.2,29.98,ESE,108,2.0,5.0,65,0.00,,---,0.00,VWS V14.01,2013-08-23 02:48:00,
2013-08-22 21:53:00,82.0,69.1,29.98,SE,145,3.0,5.0,65,0.00,,---,0.00,VWS V14.01,2013-08-23 02:53:00,
2013-08-22 21:58:00,81.9,69.0,29.98,ESE,102,4.0,5.0,65,0.00,,---,0.00,VWS V14.01,2013-08-23 02:58:00,
2013-08-22 22:03:00,81.8,68.9,29.98,ENE,60,3.0,7.0,65,0.00,,---,0.00,VWS V14.01,2013-08-23 03:03:00,
2013-08-22 22:08:00,81.7,69.2,29.99,SSE,163,1.0,7.0,66,0.00,,---,0.00,VWS V14.01,2013-08-23 03:08:00,
2013-08-22 22:13:00,81.6,69.2,29.99,South,172,1.0,7.0,66,0.00,,---,0.00,VWS V14.01,2013-08-23 03:13:00,
2013-08-22 22:18:00,81.5,69.1,29.99,SSE,160,5.0,5.0,66,0.00,,---,0.00,VWS V14.01,2013-08-23 03:18:00,
2013-08-22 22:23:00,81.4,69.0,29.99,SSE,152,5.0,6.0,66,0.00,,---,0.00,VWS V14.01,2013-08-23 03:23:00,
2013-08-22 22:28:00,81.3,68.9,29.99,ESE,122,6.0,7.0,66,0.00,,---,0.00,VWS V14.01,2013-08-23 03:28:00,
2013-08-22 22:33:00,81.2,68.8,29.99,SSE,150,1.0,5.0,66,0.00,,---,0.00,VWS V14.01,2013-08-23 03:33:00,
2013-08-22 22:38:00,81.2,68.8,29.99,SE,145,2.0,6.0,66,0.00,,---,0.00,VWS V14.01,2013-08-23 03:38:00,
2013-08-22 22:43:00,81.0,68.6,29.99,South,169,4.0,10.0,66,0.00,,---,0.00,VWS V14.01,2013-08-23 03:43:00,
2013-08-22 22:48:00,80.9,68.9,29.99,SE,140,0.0,3.0,67,0.00,,---,0.00,VWS V14.01,2013-08-23 03:48:00,
2013-08-22 22:53:00,80.7,68.7,29.99,SE,128,3.0,6.0,67,0.00,,---,0.00,VWS V14.01,2013-08-23 03:53:00,
2013-08-22 22:58:00,80.3,68.8,30.00,SE,131,2.0,6.0,68,0.00,,---,0.00,VWS V14.01,2013-08-23 03:58:00,
2013-08-22 23:01:00,80.2,68.7,30.00,SSE,153,0.0,2.0,68,0.00,,---,0.00,VWS V14.01,2013-08-23 04:01:00,
2013-08-22 23:06:00,79.9,68.8,30.00,SSE,159,5.0,6.0,69,0.00,,---,0.00,VWS V14.01,2013-08-23 04:06:00,
2013-08-22 23:11:00,79.7,68.6,30.00,South,191,4.0,6.0,69,0.00,,---,0.00,VWS V14.01,2013-08-23 04:11:00,
2013-08-22 23:16:00,79.6,68.5,30.00,SE,142,4.0,5.0,69,0.00,,---,0.00,VWS V14.01,2013-08-23 04:16:00,
2013-08-22 23:21:00,79.4,68.8,30.00,South,176,3.0,6.0,70,0.00,,---,0.00,VWS V14.01,2013-08-23 04:21:00,
2013-08-22 23:26:00,79.3,68.7,30.00,SSE,158,5.0,10.0,70,0.00,,---,0.00,VWS V14.01,2013-08-23 04:26:00,
2013-08-22 23:31:00,79.2,68.6,30.00,South,179,3.0,3.0,70,0.00,,---,0.00,VWS V14.01,2013-08-23 04:31:00,
2013-08-22 23:36:00,79.1,68.5,30.00,SSW,200,0.0,6.0,70,0.00,,---,0.00,VWS V14.01,2013-08-23 04:36:00,
2013-08-22 23:41:00,79.0,68.8,30.00,SSW,200,1.0,7.0,71,0.00,,---,0.00,VWS V14.01,2013-08-23 04:41:00,
2013-08-22 23:46:00,78.9,68.7,30.00,SSE,162,4.0,5.0,71,0.00,,---,0.00,VWS V14.01,2013-08-23 04:46:00,
2013-08-22 23:51:00,78.7,68.9,30.01,SE,145,4.0,7.0,72,0.00,,---,0.00,VWS V14.01,2013-08-23 04:51:00,
2013-08-22 23:56:00,78.6,68.8,30.00,SSW,200,2.0,7.0,72,0.00,,---,0.00,VWS V14.01,2013-08-23 04:56:00,